Date String (YYYY-MM-DD hh:mm:ss) UTC,Instrument flags,absolute air pressure of the measurement (hPa),sample flow rate (lpm),inlet stack bypass flow (lpm),air temperature of the measurement (°C),ambient temperature measured by the external sensor (°C),aerosol sample conditioner tube jacket temperature (°C),OPC LED temperature (°C),internal box temperature (°C),relative humidity of the measurement (%),span deviation,mass concentration of particles derived from Lorenz-Mie calculation of OPC scattering (μg/m³),mass concentration of particles derived from Lorenz-Mie calculation of OPC scattering (μg/m³),mass concentration of particles derived from Lorenz-Mie calculation of OPC scattering (μg/m³)
DateTimeUTC,F1_M11,P_M11,Q1_M11,Q2_M11,T1_M11,T2_M11,T3_M11,T4_M11,T5_M11,U1_M11,ZSPAN_M11,X0_M11,X2_M11,X1_M11
2024-02-01 02:00:00,SystemResetWarning,0827.2,5.00,000.00,025.8,025.1,000.0,034.1,027.5,08.8,0000.0,0012.13,0003.07,0002.04
2024-02-01 02:01:00,SystemResetWarning,0827.2,5.00,000.00,025.8,025.1,000.0,034.1,027.5,08.7,0000.0,0011.38,0003.10,0002.11
2024-02-01 02:02:00,SystemResetWarning,0827.2,5.01,000.00,025.8,025.2,000.0,034.1,027.5,08.6,0000.0,0010.74,0003.12,0002.15
2024-02-01 02:03:00,SystemResetWarning,0827.2,5.00,000.00,025.8,025.2,000.0,034.1,027.6,08.6,0000.0,0010.59,0003.14,0002.18
2024-02-01 02:04:00,SystemResetWarning,0827.1,4.99,000.00,025.9,025.2,000.0,034.1,027.6,08.5,0000.0,0010.10,0003.19,0002.23
2024-02-01 02:05:00,SystemResetWarning,0827.1,5.00,000.00,025.9,025.2,000.0,034.1,027.6,08.5,0000.0,0009.86,0003.20,0002.26
2024-02-01 02:06:00,SystemResetWarning,0827.1,5.01,000.00,025.9,025.2,000.0,034.1,027.6,08.9,0000.0,0009.96,0003.21,0002.26
2024-02-01 02:07:00,SystemResetWarning,0827.1,4.99,000.00,025.9,025.2,000.0,034.1,027.5,08.9,0000.0,0010.25,0003.20,0002.30
2024-02-01 02:08:00,SystemResetWarning,0827.2,4.98,000.00,025.9,025.2,000.0,034.1,027.5,08.8,0000.0,0010.51,0003.22,0002.36
2024-02-01 02:09:00,SystemResetWarning,0827.2,5.02,000.00,025.9,025.2,000.0,034.1,027.5,09.0,0000.0,0010.80,0003.27,0002.43
2024-02-01 02:10:00,SystemResetWarning,0827.1,5.02,000.00,025.9,025.2,000.0,034.1,027.5,09.0,0000.0,0010.72,0003.28,0002.46
2024-02-01 02:11:00,SystemResetWarning,0827.1,5.00,000.00,025.9,025.2,000.0,034.1,027.6,08.8,0000.0,0010.25,0003.28,0002.48
2024-02-01 02:12:00,SystemResetWarning,0827.2,5.00,000.00,025.9,025.2,000.0,034.1,027.6,08.8,0000.0,0010.86,0003.32,0002.56
2024-02-01 02:13:00,SystemResetWarning,0827.1,4.99,000.00,025.9,025.2,000.0,034.1,027.5,08.7,0000.0,0011.22,0003.36,0002.64
2024-02-01 02:14:00,SystemResetWarning,0827.2,5.00,000.00,025.9,025.2,000.0,034.1,027.5,08.7,0000.0,0011.31,0003.44,0002.75
2024-02-01 02:15:00,SystemResetWarning,0827.1,5.01,000.00,025.9,025.1,000.0,034.1,027.6,08.6,0000.0,0011.26,0003.50,0002.88
2024-02-01 02:16:00,SystemResetWarning,0827.1,5.00,000.00,025.9,025.1,000.0,034.1,027.6,08.6,0000.0,0011.02,0003.60,0003.02
2024-02-01 02:17:00,SystemResetWarning,0827.2,4.98,000.00,025.9,025.1,000.0,034.2,027.6,08.7,0000.0,0011.22,0003.68,0003.15
2024-02-01 02:18:00,SystemResetWarning,0827.2,5.00,000.00,025.9,025.1,000.0,034.2,027.6,08.6,0000.0,0011.27,0003.73,0003.19
2024-02-01 02:19:00,SystemResetWarning,0827.1,5.01,000.00,025.9,025.1,000.0,034.2,027.6,08.6,0000.0,0011.12,0003.77,0003.23
2024-02-01 02:20:00,SystemResetWarning,0827.2,4.98,000.00,025.9,025.1,000.0,034.2,027.6,08.6,0000.0,0010.72,0003.82,0003.26
2024-02-01 02:21:00,SystemResetWarning,0827.1,5.01,000.00,025.9,025.2,000.0,034.2,027.6,08.5,0000.0,0009.86,0003.81,0003.28
2024-02-01 02:22:00,SystemResetWarning,0827.2,5.01,000.00,025.9,025.2,000.0,034.2,027.6,08.5,0000.0,0010.40,0003.81,0003.27
2024-02-01 02:23:00,SystemResetWarning,0827.2,5.01,000.00,025.9,025.2,000.0,034.2,027.6,08.5,0000.0,0010.44,0003.81,0003.24
2024-02-01 02:24:00,SystemResetWarning,0827.1,4.99,000.00,025.9,025.2,000.0,034.2,027.6,08.5,0000.0,0010.46,0003.80,0003.23
2024-02-01 02:25:00,SystemResetWarning,0827.2,4.99,000.00,025.9,025.2,000.0,034.2,027.6,08.4,0000.0,0010.42,0003.77,0003.21
2024-02-01 02:26:00,SystemResetWarning,0827.2,5.00,000.00,025.9,025.2,000.0,034.2,027.6,08.3,0000.0,0011.12,0003.71,0003.15
2024-02-01 02:27:00,SystemResetWarning,0827.2,4.99,000.00,025.9,025.2,000.0,034.2,027.6,08.3,0000.0,0011.72,0003.61,0003.05
2024-02-01 02:28:00,SystemResetWarning,0827.2,5.01,000.00,025.9,025.2,000.0,034.2,027.6,08.3,0000.0,0011.37,0003.51,0002.90
2024-02-01 02:29:00,SystemResetWarning,0827.2,5.00,000.00,025.9,025.2,000.0,034.2,027.6,08.3,0000.0,0011.23,0003.43,0002.79
2024-02-01 02:30:00,SystemResetWarning,0827.2,5.01,000.00,025.9,025.2,000.0,034.2,027.6,08.4,0000.0,0010.80,0003.39,0002.72
2024-02-01 02:31:00,SystemResetWarning,0827.1,5.00,000.00,025.9,025.2,000.0,034.2,027.6,08.4,0000.0,0011.04,0003.43,0002.77
2024-02-01 02:32:00,SystemResetWarning,0827.1,4.99,000.00,025.9,025.2,000.0,034.2,027.6,08.3,0000.0,0011.25,0003.48,0002.88
2024-02-01 02:33:00,SystemResetWarning,0827.1,5.00,000.00,025.9,025.2,000.0,034.2,027.6,08.2,0000.0,0011.05,0003.47,0002.86
2024-02-01 02:34:00,SystemResetWarning,0827.1,5.00,000.00,025.9,025.2,000.0,034.2,027.6,08.3,0000.0,0010.05,0003.36,0002.77
2024-02-01 02:35:00,SystemResetWarning,0827.2,5.00,000.00,025.9,025.2,000.0,034.2,027.6,08.3,0000.0,0009.63,0003.31,0002.71
2024-02-01 02:36:00,SystemResetWarning,0827.1,5.00,000.00,025.9,025.2,000.0,034.2,027.6,08.3,0000.0,0009.49,0003.31,0002.72
2024-02-01 02:37:00,SystemResetWarning,0827.1,5.00,000.00,025.9,025.2,000.0,034.2,027.6,08.3,0000.0,0009.43,0003.32,0002.75
2024-02-01 02:38:00,SystemResetWarning,0827.1,5.00,000.00,025.9,025.2,000.0,034.2,027.6,08.4,0000.0,0009.16,0003.40,0002.87
2024-02-01 02:39:00,SystemResetWarning,0827.1,5.00,000.00,025.9,025.2,000.0,034.2,027.6,08.3,0000.0,0009.32,0003.52,0003.03
2024-02-01 02:40:00,SystemResetWarning,0827.1,5.00,000.00,025.9,025.2,000.0,034.2,027.6,08.3,0000.0,0009.26,0003.53,0003.05
2024-02-01 02:41:00,SystemResetWarning,0827.1,5.00,000.00,025.9,025.2,000.0,034.2,027.6,08.3,0000.0,0009.90,0003.49,0002.99
2024-02-01 02:42:00,SystemResetWarning,0827.1,5.00,000.00,025.9,025.2,000.0,034.2,027.6,08.2,0000.0,0009.46,0003.35,0002.80
2024-02-01 02:43:00,SystemResetWarning,0827.1,5.00,000.00,025.9,025.2,000.0,034.2,027.6,08.2,0000.0,0009.20,0003.19,0002.57
2024-02-01 02:44:00,SystemResetWarning,0827.1,5.00,000.00,025.9,025.2,000.0,034.2,027.6,08.3,0000.0,0009.01,0003.15,0002.55
2024-02-01 02:45:00,SystemResetWarning,0827.0,5.00,000.00,025.9,025.2,000.0,034.2,027.6,08.2,0000.0,0009.37,0003.25,0002.68
2024-02-01 02:46:00,SystemResetWarning,0827.0,5.00,000.00,025.9,025.2,000.0,034.2,027.6,08.2,0000.0,0009.24,0003.18,0002.57
2024-02-01 02:47:00,SystemResetWarning,0827.0,5.00,000.00,025.9,025.2,000.0,034.2,027.6,08.3,0000.0,0009.02,0003.10,0002.46
2024-02-01 02:48:00,SystemResetWarning,0827.0,4.99,000.00,025.9,025.2,000.0,034.2,027.7,08.3,0000.0,0008.43,0003.15,0002.52
2024-02-01 02:49:00,SystemResetWarning,0827.0,5.00,000.00,025.9,025.2,000.0,034.2,027.6,08.3,0000.0,0008.41,0003.17,0002.59
2024-02-01 02:50:00,SystemResetWarning,0827.0,4.99,000.00,025.9,025.2,000.0,034.2,027.6,08.3,0000.0,0009.02,0003.15,0002.59
2024-02-01 02:51:00,SystemResetWarning,0827.0,5.00,000.00,025.9,025.2,000.0,034.2,027.7,08.3,0000.0,0009.85,0003.27,0002.69
2024-02-01 02:52:00,SystemResetWarning,0827.0,5.01,000.00,025.9,025.2,000.0,034.2,027.7,08.3,0000.0,0010.45,0003.35,0002.81
2024-02-01 02:53:00,SystemResetWarning,0827.0,5.01,000.00,025.9,025.2,000.0,034.2,027.7,08.4,0000.0,0010.94,0003.43,0002.95
2024-02-01 02:54:00,SystemResetWarning,0827.0,4.99,000.00,025.9,025.2,000.0,034.3,027.7,08.4,0000.0,0011.06,0003.60,0003.11
2024-02-01 02:55:00,SystemResetWarning,0827.0,4.99,000.00,025.9,025.2,000.0,034.3,027.7,08.4,0000.0,0011.23,0003.72,0003.22
2024-02-01 02:56:00,SystemResetWarning,0827.0,5.00,000.00,025.9,025.2,000.0,034.3,027.7,08.4,0000.0,0011.81,0003.77,0003.28
2024-02-01 02:57:00,SystemResetWarning,0827.0,5.00,000.00,025.9,025.2,000.0,034.3,027.7,08.5,0000.0,0012.42,0004.02,0003.48
2024-02-01 02:58:00,SystemResetWarning,0827.0,5.00,000.00,025.9,025.2,000.0,034.3,027.7,08.5,0000.0,0013.16,0004.24,0003.65
2024-02-01 02:59:00,SystemResetWarning,0827.0,5.00,000.00,025.9,025.2,000.0,034.3,027.7,08.5,0000.0,0014.07,0004.33,0003.73
